Time,TemperatureF,DewpointF,PressureIn,WindDirection,WindDirectionDegrees,WindSpeedMPH,WindSpeedGustMPH,Humidity,HourlyPrecipIn,Conditions,Clouds,dailyrainin,SoftwareType,DateUTC
2013-02-06 00:02:00,25.0,24.0,29.95,WNW,296,0.0,-999.0,94,-99.99,,,-99.99,,2013-02-06 05:02:00,
2013-02-06 00:12:00,25.0,24.0,29.95,WNW,296,0.0,-999.0,94,-99.99,,,-99.99,,2013-02-06 05:12:00,
2013-02-06 00:22:00,25.0,24.0,29.95,WNW,296,0.0,-999.0,94,-99.99,,,-99.99,,2013-02-06 05:22:00,
2013-02-06 00:32:00,26.0,25.0,29.96,NNW,338,0.0,-999.0,94,-99.99,,,-99.99,,2013-02-06 05:32:00,
2013-02-06 00:42:00,26.0,25.0,29.96,NNW,338,0.0,-999.0,94,-99.99,,,-99.99,,2013-02-06 05:42:00,
2013-02-06 00:53:00,27.0,25.0,29.96,West,261,0.0,-999.0,93,-99.99,,,-99.99,,2013-02-06 05:53:00,
2013-02-06 01:01:00,27.0,25.0,29.96,West,261,0.0,-999.0,93,-99.99,,,-99.99,,2013-02-06 06:01:00,
2013-02-06 01:11:00,27.0,25.0,29.96,West,261,0.0,-999.0,93,-99.99,,,-99.99,,2013-02-06 06:11:00,
2013-02-06 01:22:00,27.0,25.0,29.98,SW,215,0.0,-999.0,92,-99.99,,,-99.99,,2013-02-06 06:22:00,
2013-02-06 01:32:00,27.0,25.0,29.98,West,260,0.0,-999.0,91,-99.99,,,-99.99,,2013-02-06 06:32:00,
2013-02-06 01:42:00,27.0,25.0,29.98,West,260,0.0,-999.0,91,-99.99,,,-99.99,,2013-02-06 06:42:00,
2013-02-06 01:51:00,27.0,25.0,29.99,WSW,244,0.0,-999.0,91,-99.99,,,-99.99,,2013-02-06 06:51:00,
2013-02-06 02:02:00,27.0,25.0,29.99,West,259,0.0,-999.0,91,-99.99,,,-99.99,,2013-02-06 07:02:00,
2013-02-06 02:11:00,27.0,25.0,29.99,West,259,0.0,-999.0,91,-99.99,,,-99.99,,2013-02-06 07:11:00,
2013-02-06 02:22:00,28.0,26.0,29.99,West,278,0.0,-999.0,91,-99.99,,,-99.99,,2013-02-06 07:22:00,
2013-02-06 02:32:00,28.0,26.0,30.00,West,269,0.0,-999.0,91,-99.99,,,-99.99,,2013-02-06 07:32:00,
2013-02-06 02:42:00,28.0,26.0,30.00,West,269,0.0,-999.0,91,-99.99,,,-99.99,,2013-02-06 07:42:00,
2013-02-06 02:51:00,28.0,26.0,30.01,NW,311,0.0,-999.0,91,-99.99,,,-99.99,,2013-02-06 07:51:00,
2013-02-06 03:01:00,28.0,25.0,30.01,NW,319,0.0,-999.0,90,-99.99,,,-99.99,,2013-02-06 08:01:00,
2013-02-06 03:11:00,28.0,25.0,30.01,NW,319,0.0,-999.0,90,-99.99,,,-99.99,,2013-02-06 08:11:00,
2013-02-06 03:21:00,28.0,25.0,30.02,West,280,0.0,-999.0,90,-99.99,,,-99.99,,2013-02-06 08:21:00,
2013-02-06 03:32:00,28.0,25.0,30.03,NNW,336,1.0,-999.0,90,-99.99,,,-99.99,,2013-02-06 08:32:00,
2013-02-06 03:42:00,28.0,25.0,30.03,NNW,336,1.0,-999.0,90,-99.99,,,-99.99,,2013-02-06 08:42:00,
2013-02-06 03:53:00,29.0,26.0,30.04,NW,317,0.0,-999.0,89,-99.99,,,-99.99,,2013-02-06 08:53:00,
2013-02-06 04:02:00,29.0,26.0,30.04,NNW,340,2.0,-999.0,89,-99.99,,,-99.99,,2013-02-06 09:02:00,
2013-02-06 04:11:00,29.0,26.0,30.04,NNW,340,2.0,-999.0,89,-99.99,,,-99.99,,2013-02-06 09:11:00,
2013-02-06 04:21:00,29.0,26.0,30.05,North,360,2.0,-999.0,88,-99.99,,,-99.99,,2013-02-06 09:21:00,
2013-02-06 04:32:00,29.0,26.0,30.05,NW,308,1.0,-999.0,88,-99.99,,,-99.99,,2013-02-06 09:32:00,
2013-02-06 04:42:00,29.0,26.0,30.05,NW,308,1.0,-999.0,88,-99.99,,,-99.99,,2013-02-06 09:42:00,
2013-02-06 04:52:00,28.0,25.0,30.06,NW,306,2.0,-999.0,87,-99.99,,,-99.99,,2013-02-06 09:52:00,
2013-02-06 05:01:00,28.0,25.0,30.06,North,360,1.0,-999.0,87,-99.99,,,-99.99,,2013-02-06 10:01:00,
2013-02-06 05:11:00,28.0,25.0,30.06,North,360,1.0,-999.0,87,-99.99,,,-99.99,,2013-02-06 10:11:00,
2013-02-06 05:22:00,27.0,23.0,30.08,North,350,4.0,-999.0,86,-99.99,,,-99.99,,2013-02-06 10:22:00,
2013-02-06 05:32:00,26.0,22.0,30.09,NNW,348,3.0,-999.0,86,-99.99,,,-99.99,,2013-02-06 10:32:00,
2013-02-06 05:42:00,26.0,22.0,30.09,NNW,348,3.0,-999.0,86,-99.99,,,-99.99,,2013-02-06 10:42:00,
2013-02-06 05:52:00,25.0,21.0,30.12,North,5,3.0,-999.0,85,-99.99,,,-99.99,,2013-02-06 10:52:00,
2013-02-06 06:01:00,25.0,21.0,30.13,WNW,301,4.0,-999.0,83,-99.99,,,-99.99,,2013-02-06 11:01:00,
2013-02-06 06:11:00,25.0,21.0,30.13,WNW,301,4.0,-999.0,83,-99.99,,,-99.99,,2013-02-06 11:11:00,
2013-02-06 06:22:00,24.0,20.0,30.14,North,350,2.0,-999.0,83,-99.99,,,-99.99,,2013-02-06 11:22:00,
2013-02-06 06:32:00,24.0,20.0,30.15,NNE,16,1.0,-999.0,84,-99.99,,,-99.99,,2013-02-06 11:32:00,
2013-02-06 06:42:00,24.0,20.0,30.15,NNE,16,1.0,-999.0,84,-99.99,,,-99.99,,2013-02-06 11:42:00,
2013-02-06 06:52:00,24.0,19.0,30.16,NNW,340,2.0,-999.0,82,-99.99,,,-99.99,,2013-02-06 11:52:00,
2013-02-06 07:02:00,24.0,20.0,30.17,NNE,12,1.0,-999.0,83,-99.99,,,-99.99,,2013-02-06 12:02:00,
2013-02-06 07:12:00,24.0,20.0,30.17,NNE,12,1.0,-999.0,83,-99.99,,,-99.99,,2013-02-06 12:12:00,
2013-02-06 07:22:00,24.0,20.0,30.17,NNE,28,1.0,-999.0,85,-99.99,,,-99.99,,2013-02-06 12:22:00,
2013-02-06 07:32:00,24.0,18.0,30.18,NNW,336,3.0,-999.0,79,-99.99,,,-99.99,,2013-02-06 12:32:00,
2013-02-06 07:42:00,24.0,18.0,30.18,NNW,336,3.0,-999.0,79,-99.99,,,-99.99,,2013-02-06 12:42:00,
2013-02-06 07:52:00,23.0,17.0,30.20,North,351,1.0,-999.0,78,-99.99,,,-99.99,,2013-02-06 12:52:00,
2013-02-06 08:02:00,23.0,16.0,30.21,NNE,15,2.0,-999.0,75,-99.99,,,-99.99,,2013-02-06 13:02:00,
2013-02-06 08:12:00,23.0,16.0,30.21,NNE,15,2.0,-999.0,75,-99.99,,,-99.99,,2013-02-06 13:12:00,
2013-02-06 08:22:00,23.0,16.0,30.22,NNE,21,2.0,-999.0,73,-99.99,,,-99.99,,2013-02-06 13:22:00,
2013-02-06 08:32:00,23.0,15.0,30.23,NNW,344,2.0,-999.0,72,-99.99,,,-99.99,,2013-02-06 13:32:00,
2013-02-06 08:42:00,23.0,15.0,30.23,NNW,344,2.0,-999.0,72,-99.99,,,-99.99,,2013-02-06 13:42:00,
2013-02-06 08:52:00,23.0,17.0,30.24,NNE,26,2.0,-999.0,76,-99.99,,,-99.99,,2013-02-06 13:52:00,
2013-02-06 09:02:00,23.0,15.0,30.24,NNE,18,1.0,-999.0,72,-99.99,,,-99.99,,2013-02-06 14:02:00,
2013-02-06 09:11:00,23.0,15.0,30.24,NNE,18,1.0,-999.0,72,-99.99,,,-99.99,,2013-02-06 14:11:00,
2013-02-06 09:22:00,23.0,15.0,30.25,NNE,20,1.0,-999.0,72,-99.99,,,-99.99,,2013-02-06 14:22:00,
2013-02-06 09:32:00,23.0,15.0,30.26,NNE,24,2.0,-999.0,72,-99.99,,,-99.99,,2013-02-06 14:32:00,
2013-02-06 09:42:00,23.0,15.0,30.26,NNE,24,2.0,-999.0,72,-99.99,,,-99.99,,2013-02-06 14:42:00,
2013-02-06 09:52:00,23.0,15.0,30.27,NNE,32,1.0,-999.0,72,-99.99,,,-99.99,,2013-02-06 14:52:00,
2013-02-06 10:02:00,24.0,16.0,30.27,North,9,0.0,-999.0,70,-99.99,,,-99.99,,2013-02-06 15:02:00,
2013-02-06 10:11:00,24.0,16.0,30.27,North,9,0.0,-999.0,70,-99.99,,,-99.99,,2013-02-06 15:11:00,
2013-02-06 10:21:00,24.0,15.0,30.27,NE,46,1.0,-999.0,69,-99.99,,,-99.99,,2013-02-06 15:21:00,
2013-02-06 10:32:00,24.0,15.0,30.28,North,355,2.0,-999.0,68,-99.99,,,-99.99,,2013-02-06 15:32:00,
2013-02-06 10:42:00,24.0,15.0,30.28,North,355,2.0,-999.0,68,-99.99,,,-99.99,,2013-02-06 15:42:00,
2013-02-06 10:52:00,25.0,16.0,30.27,NE,56,1.0,-999.0,69,-99.99,,,-99.99,,2013-02-06 15:52:00,
2013-02-06 11:01:00,25.0,15.0,30.27,NE,42,1.0,-999.0,66,-99.99,,,-99.99,,2013-02-06 16:01:00,
2013-02-06 11:11:00,25.0,15.0,30.27,NE,42,1.0,-999.0,66,-99.99,,,-99.99,,2013-02-06 16:11:00,
2013-02-06 11:21:00,25.0,15.0,30.28,NNE,24,2.0,-999.0,65,-99.99,,,-99.99,,2013-02-06 16:21:00,
2013-02-06 11:32:00,26.0,16.0,30.28,NNE,19,2.0,-999.0,65,-99.99,,,-99.99,,2013-02-06 16:32:00,
2013-02-06 11:42:00,26.0,16.0,30.28,NNE,19,2.0,-999.0,65,-99.99,,,-99.99,,2013-02-06 16:42:00,
2013-02-06 11:52:00,26.0,15.0,30.28,NNE,27,2.0,-999.0,63,-99.99,,,-99.99,,2013-02-06 16:52:00,
2013-02-06 12:02:00,26.0,15.0,30.28,NNE,27,2.0,-999.0,63,-99.99,,,-99.99,,2013-02-06 17:02:00,
2013-02-06 12:12:00,26.0,15.0,30.28,NNE,27,2.0,-999.0,63,-99.99,,,-99.99,,2013-02-06 17:12:00,
2013-02-06 12:22:00,27.0,16.0,30.29,NNE,26,2.0,-999.0,62,-99.99,,,-99.99,,2013-02-06 17:22:00,
2013-02-06 12:32:00,28.0,16.0,30.29,WSW,257,1.0,-999.0,61,-99.99,,,-99.99,,2013-02-06 17:32:00,
2013-02-06 12:42:00,27.0,15.0,30.28,NNE,24,3.0,-999.0,61,-99.99,,,-99.99,,2013-02-06 17:42:00,
2013-02-06 12:52:00,27.0,15.0,30.28,NNE,24,3.0,-999.0,61,-99.99,,,-99.99,,2013-02-06 17:52:00,
2013-02-06 13:02:00,27.0,15.0,30.28,NW,321,2.0,-999.0,61,-99.99,,,-99.99,,2013-02-06 18:02:00,
2013-02-06 13:12:00,28.0,17.0,30.27,ENE,71,2.0,-999.0,62,-99.99,,,-99.99,,2013-02-06 18:12:00,
2013-02-06 13:23:00,28.0,17.0,30.27,ENE,71,2.0,-999.0,62,-99.99,,,-99.99,,2013-02-06 18:23:00,
2013-02-06 13:32:00,28.0,16.0,30.28,NNE,19,3.0,-999.0,60,-99.99,,,-99.99,,2013-02-06 18:32:00,
2013-02-06 13:42:00,28.0,16.0,30.28,NNE,19,3.0,-999.0,60,-99.99,,,-99.99,,2013-02-06 18:42:00,
2013-02-06 13:52:00,28.0,17.0,30.29,North,5,1.0,-999.0,63,-99.99,,,-99.99,,2013-02-06 18:52:00,
2013-02-06 14:02:00,29.0,16.0,30.29,North,9,1.0,-999.0,59,-99.99,,,-99.99,,2013-02-06 19:02:00,
2013-02-06 14:11:00,29.0,16.0,30.29,North,9,1.0,-999.0,59,-99.99,,,-99.99,,2013-02-06 19:11:00,
2013-02-06 14:21:00,29.0,16.0,30.28,NW,321,1.0,-999.0,59,-99.99,,,-99.99,,2013-02-06 19:21:00,
2013-02-06 14:32:00,29.0,17.0,30.29,NNE,29,2.0,-999.0,61,-99.99,,,-99.99,,2013-02-06 19:32:00,
2013-02-06 14:42:00,29.0,17.0,30.29,NNE,29,2.0,-999.0,61,-99.99,,,-99.99,,2013-02-06 19:42:00,
2013-02-06 14:52:00,29.0,16.0,30.29,North,350,0.0,-999.0,59,-99.99,,,-99.99,,2013-02-06 19:52:00,
2013-02-06 15:01:00,29.0,16.0,30.30,NNW,338,1.0,-999.0,58,-99.99,,,-99.99,,2013-02-06 20:01:00,
2013-02-06 15:11:00,29.0,17.0,30.29,ESE,105,1.0,-999.0,60,-99.99,,,-99.99,,2013-02-06 20:11:00,
2013-02-06 15:21:00,29.0,17.0,30.29,ESE,105,1.0,-999.0,60,-99.99,,,-99.99,,2013-02-06 20:21:00,
2013-02-06 15:32:00,29.0,16.0,30.29,NNW,333,0.0,-999.0,59,-99.99,,,-99.99,,2013-02-06 20:32:00,
2013-02-06 15:42:00,29.0,16.0,30.29,NNW,333,0.0,-999.0,59,-99.99,,,-99.99,,2013-02-06 20:42:00,
2013-02-06 15:52:00,29.0,16.0,30.29,NW,309,0.0,-999.0,58,-99.99,,,-99.99,,2013-02-06 20:52:00,
2013-02-06 16:02:00,30.0,17.0,30.29,WNW,290,0.0,-999.0,57,-99.99,,,-99.99,,2013-02-06 21:02:00,
2013-02-06 16:11:00,30.0,17.0,30.29,WNW,290,0.0,-999.0,57,-99.99,,,-99.99,,2013-02-06 21:11:00,
2013-02-06 16:21:00,30.0,16.0,30.29,WNW,288,0.0,-999.0,55,-99.99,,,-99.99,,2013-02-06 21:21:00,
2013-02-06 16:32:00,30.0,16.0,30.30,ESE,102,1.0,-999.0,56,-99.99,,,-99.99,,2013-02-06 21:32:00,
2013-02-06 16:42:00,30.0,16.0,30.30,ESE,102,1.0,-999.0,56,-99.99,,,-99.99,,2013-02-06 21:42:00,
2013-02-06 16:51:00,29.0,16.0,30.30,East,82,1.0,-999.0,57,-99.99,,,-99.99,,2013-02-06 21:51:00,
2013-02-06 17:01:00,29.0,15.0,30.30,ENE,67,0.0,-999.0,56,-99.99,,,-99.99,,2013-02-06 22:01:00,
2013-02-06 17:11:00,29.0,15.0,30.30,ENE,67,0.0,-999.0,56,-99.99,,,-99.99,,2013-02-06 22:11:00,
2013-02-06 17:22:00,29.0,15.0,30.30,ENE,67,0.0,-999.0,56,-99.99,,,-99.99,,2013-02-06 22:22:00,
2013-02-06 17:32:00,30.0,23.0,30.30,ENE,67,0.0,-999.0,76,-99.99,,,-99.99,,2013-02-06 22:32:00,
2013-02-06 17:52:00,29.0,16.0,30.29,ESE,103,0.0,-999.0,58,-99.99,,,-99.99,,2013-02-06 22:52:00,
2013-02-06 18:01:00,28.0,15.0,30.29,East,85,0.0,-999.0,58,-99.99,,,-99.99,,2013-02-06 23:01:00,
2013-02-06 18:11:00,28.0,15.0,30.29,East,85,0.0,-999.0,58,-99.99,,,-99.99,,2013-02-06 23:11:00,
2013-02-06 18:21:00,28.0,21.0,30.29,East,85,0.0,-999.0,76,-99.99,,,-99.99,,2013-02-06 23:21:00,
2013-02-06 18:32:00,28.0,16.0,30.29,East,85,0.0,-999.0,60,-99.99,,,-99.99,,2013-02-06 23:32:00,
2013-02-06 18:42:00,28.0,16.0,30.29,East,85,0.0,-999.0,60,-99.99,,,-99.99,,2013-02-06 23:42:00,
2013-02-06 18:52:00,27.0,16.0,30.29,East,85,0.0,-999.0,62,-99.99,,,-99.99,,2013-02-06 23:52:00,
2013-02-06 19:02:00,27.0,15.0,30.30,East,85,0.0,-999.0,61,-99.99,,,-99.99,,2013-02-07 00:02:00,
2013-02-06 19:11:00,27.0,15.0,30.30,East,85,0.0,-999.0,61,-99.99,,,-99.99,,2013-02-07 00:11:00,
2013-02-06 19:21:00,26.0,15.0,30.31,East,85,0.0,-999.0,62,-99.99,,,-99.99,,2013-02-07 00:21:00,
2013-02-06 19:32:00,25.0,15.0,30.32,East,85,0.0,-999.0,65,-99.99,,,-99.99,,2013-02-07 00:32:00,
2013-02-06 19:42:00,25.0,15.0,30.32,East,85,0.0,-999.0,65,-99.99,,,-99.99,,2013-02-07 00:42:00,
2013-02-06 19:52:00,25.0,20.0,30.32,East,85,0.0,-999.0,82,-99.99,,,-99.99,,2013-02-07 00:52:00,
2013-02-06 20:01:00,24.0,18.0,30.33,East,85,0.0,-999.0,76,-99.99,,,-99.99,,2013-02-07 01:01:00,
2013-02-06 20:11:00,24.0,18.0,30.33,East,85,0.0,-999.0,76,-99.99,,,-99.99,,2013-02-07 01:11:00,
2013-02-06 20:21:00,23.0,15.0,30.33,East,85,0.0,-999.0,71,-99.99,,,-99.99,,2013-02-07 01:21:00,
2013-02-06 20:32:00,22.0,15.0,30.33,East,85,0.0,-999.0,75,-99.99,,,-99.99,,2013-02-07 01:32:00,
2013-02-06 20:42:00,22.0,15.0,30.33,East,85,0.0,-999.0,75,-99.99,,,-99.99,,2013-02-07 01:42:00,
2013-02-06 20:52:00,22.0,16.0,30.34,East,85,0.0,-999.0,78,-99.99,,,-99.99,,2013-02-07 01:52:00,
2013-02-06 21:02:00,21.0,16.0,30.33,East,85,0.0,-999.0,79,-99.99,,,-99.99,,2013-02-07 02:02:00,
2013-02-06 21:11:00,21.0,16.0,30.33,East,85,0.0,-999.0,79,-99.99,,,-99.99,,2013-02-07 02:11:00,
2013-02-06 21:21:00,21.0,16.0,30.33,East,85,0.0,-999.0,79,-99.99,,,-99.99,,2013-02-07 02:21:00,
2013-02-06 21:32:00,20.0,15.0,30.33,East,85,0.0,-999.0,82,-99.99,,,-99.99,,2013-02-07 02:32:00,
2013-02-06 21:42:00,20.0,15.0,30.33,East,85,0.0,-999.0,82,-99.99,,,-99.99,,2013-02-07 02:42:00,
2013-02-06 21:52:00,20.0,15.0,30.33,East,85,0.0,-999.0,82,-99.99,,,-99.99,,2013-02-07 02:52:00,
2013-02-06 22:02:00,19.0,15.0,30.33,East,85,0.0,-999.0,83,-99.99,,,-99.99,,2013-02-07 03:02:00,
2013-02-06 22:11:00,19.0,15.0,30.33,East,85,0.0,-999.0,83,-99.99,,,-99.99,,2013-02-07 03:11:00,
2013-02-06 22:21:00,19.0,15.0,30.32,East,85,0.0,-999.0,84,-99.99,,,-99.99,,2013-02-07 03:21:00,
2013-02-06 22:32:00,19.0,15.0,30.32,East,85,0.0,-999.0,84,-99.99,,,-99.99,,2013-02-07 03:32:00,
2013-02-06 22:42:00,19.0,15.0,30.32,East,85,0.0,-999.0,84,-99.99,,,-99.99,,2013-02-07 03:42:00,
2013-02-06 22:52:00,19.0,15.0,30.31,East,85,0.0,-999.0,84,-99.99,,,-99.99,,2013-02-07 03:52:00,
2013-02-06 23:01:00,19.0,15.0,30.31,East,85,0.0,-999.0,84,-99.99,,,-99.99,,2013-02-07 04:01:00,
2013-02-06 23:11:00,19.0,15.0,30.31,East,85,0.0,-999.0,84,-99.99,,,-99.99,,2013-02-07 04:11:00,
2013-02-06 23:22:00,19.0,15.0,30.30,East,85,0.0,-999.0,84,-99.99,,,-99.99,,2013-02-07 04:22:00,
2013-02-06 23:32:00,19.0,14.0,30.30,East,85,0.0,-999.0,82,-99.99,,,-99.99,,2013-02-07 04:32:00,
2013-02-06 23:42:00,19.0,14.0,30.30,East,85,0.0,-999.0,82,-99.99,,,-99.99,,2013-02-07 04:42:00,
2013-02-06 23:53:00,19.0,14.0,30.29,East,85,0.0,-999.0,82,-99.99,,,-99.99,,2013-02-07 04:53:00,